Renton, WA
on Thursday, December 6, 2012

Thursday
Previous Day Next Day
Daily Summary
 ActualAverage (KSEA)Record (KSEA)
Temperature
Mean Temperature °F 41°F  
Max Temperature 46°F 46°F 57°F (1965)
Min Temperature 46°F 36°F 19°F (1956)
Degree Days
Heating Degree Days 19 24  
Month to date heating degree days 140  
Since 1 July heating degree days 1323  
Cooling Degree Days 0 0  
Month to date cooling degree days 0  
Year to date cooling degree days 189  
Moisture
Dew Point 39°F   
Average Humidity 75    
Maximum Humidity 83    
Minimum Humidity 68    
Precipitation
Precipitation 0.03 in 0.18 in 1.39 in (1970)
Month to date precipitation 1.16  
Year to date precipitation 33.30  
Snow
Snow 0.00 in in 0.30 in (1980)
Month to date snowfall  
Since 1 July snowfall  
Snow Depth in   
Wind
Wind Speed 7 mph   
Max Wind Speed 13 mph   
Max Gust Speed 23 mph   
Visibility 10 miles   
Events Rain   

Key: T is trace of precipitation, MM is missing value
Source: NWS Daily Summary
Time(PST)TemperatureDew PointHumidity Pressure Visibility Wind DirectionWind SpeedGust SpeedPrecipitationEvents Conditions
12:53 AM 46.0°F 37.9°F 73% 30.20 in 10.0 miles SSE 3.5 mph - N/A   Overcast
1:53 AM 46.0°F 37.0°F 71% 30.19 in 10.0 miles SSE 5.8 mph - 0.00 in   Overcast
2:50 AM 46.4°F 37.4°F 71% 30.18 in 10.0 miles SSE 6.9 mph - 0.00 in Rain Light Rain
2:53 AM 46.0°F 37.9°F 73% 30.19 in 10.0 miles SSE 5.8 mph - 0.00 in Rain Light Rain
3:13 AM 46.4°F 37.4°F 71% 30.17 in 10.0 miles SSE 6.9 mph - 0.00 in   Mostly Cloudy
3:53 AM 46.0°F 37.9°F 73% 30.18 in 10.0 miles SSE 5.8 mph - 0.00 in   Overcast
4:36 AM 46.4°F 37.4°F 71% 30.15 in 10.0 miles SSE 6.9 mph - N/A   Overcast
4:53 AM 46.0°F 37.9°F 73% 30.16 in 10.0 miles SE 4.6 mph - 0.00 in Rain Light Rain
5:53 AM 46.0°F 37.9°F 73% 30.14 in 10.0 miles South 10.4 mph - 0.00 in   Overcast
6:14 AM 46.4°F 37.4°F 71% 30.13 in 10.0 miles South 11.5 mph - N/A   Overcast
6:53 AM 46.9°F 37.0°F 68% 30.14 in 10.0 miles SSE 9.2 mph - N/A   Overcast
7:53 AM 46.9°F 37.9°F 71% 30.13 in 10.0 miles South 6.9 mph 17.3 mph 0.00 in Rain Light Rain
8:15 AM 46.4°F 37.4°F 71% 30.11 in 9.0 miles SSE 9.2 mph - 0.00 in Rain Light Rain
8:53 AM 46.9°F 37.9°F 71% 30.13 in 10.0 miles SE 4.6 mph - 0.00 in Rain Light Rain
9:53 AM 46.9°F 39.0°F 74% 30.12 in 10.0 miles SSE 9.2 mph - 0.00 in Rain Light Rain
10:53 AM 46.9°F 39.9°F 77% 30.13 in 10.0 miles South 10.4 mph - 0.01 in Rain Light Rain
11:53 AM 46.0°F 41.0°F 83% 30.11 in 7.0 miles South 9.2 mph - 0.00 in Rain Light Rain
12:24 PM 46.4°F 41.0°F 81% 30.07 in 10.0 miles SSE 12.7 mph 23.0 mph 0.01 in Rain Light Rain
12:53 PM 46.9°F 41.0°F 80% 30.08 in 10.0 miles South 11.5 mph 19.6 mph 0.01 in   Overcast
1:53 PM 46.9°F 39.9°F 77% 30.07 in 10.0 miles South 10.4 mph - N/A   Mostly Cloudy
2:53 PM 46.9°F 41.0°F 80% 30.07 in 10.0 miles SSE 10.4 mph - 0.00 in Rain Light Rain
3:04 PM 46.4°F 41.0°F 81% 30.05 in 10.0 miles South 8.1 mph 17.3 mph 0.00 in Rain Light Rain
3:53 PM 46.9°F 41.0°F 80% 30.07 in 10.0 miles SSE 6.9 mph - 0.00 in   Overcast
4:53 PM 46.9°F 41.0°F 80% 30.08 in 10.0 miles SSE 3.5 mph - N/A   Overcast
5:53 PM 46.9°F 39.0°F 74% 30.09 in 10.0 miles SW 10.4 mph - N/A   Overcast
6:53 PM 46.9°F 39.0°F 74% 30.10 in 10.0 miles South 4.6 mph - N/A   Overcast
7:53 PM 46.9°F 39.9°F 77% 30.12 in 10.0 miles South 5.8 mph - 0.01 in   Overcast
8:53 PM 46.9°F 39.9°F 77% 30.13 in 10.0 miles Variable 3.5 mph - N/A   Overcast
9:22 PM 46.4°F 39.2°F 76% 30.12 in 10.0 miles SSE 5.8 mph - N/A   Overcast
9:53 PM 46.9°F 39.9°F 77% 30.13 in 10.0 miles SSE 6.9 mph - N/A   Overcast
10:11 PM 46.4°F 39.2°F 76% 30.11 in 10.0 miles South 6.9 mph - N/A   Overcast
10:53 PM 46.9°F 39.9°F 77% 30.13 in 10.0 miles SSE 6.9 mph - N/A   Overcast
11:53 PM 46.0°F 39.9°F 79% 30.12 in 10.0 miles SSE 9.2 mph - N/A   Overcast
Moon Phase
Dec. 06 Dec. 13 Dec. 20 Dec. 28 Jan. 04
Sunrise:07:42 AM (PST) Moon Rise:No Moon Rise/
Sunset:04:18 PM (PST) Moon Set:12:12 PM (PST)12/6

Copyright © 2014 The Weather Underground, Inc.